Time,TemperatureF,DewpointF,PressureIn,WindDirection,WindDirectionDegrees,WindSpeedMPH,WindSpeedGustMPH,Humidity,HourlyPrecipIn,Conditions,Clouds,dailyrainin,SoftwareType,DateUTC
2013-09-24 00:02:00,44.2,38.7,30.15,NW,325,1.0,16.0,81,0.00,,,0.00,Wunderground v.1.15,2013-09-24 04:02:00,
2013-09-24 00:04:00,44.2,38.7,30.15,NW,326,1.0,16.0,81,0.00,,,0.00,Wunderground v.1.15,2013-09-24 04:04:00,
2013-09-24 00:06:00,44.1,38.6,30.15,WNW,300,1.0,16.0,81,0.00,,,0.00,Wunderground v.1.15,2013-09-24 04:06:00,
2013-09-24 00:07:00,44.1,38.6,30.15,WNW,300,1.0,16.0,81,0.00,,,0.00,Wunderground v.1.15,2013-09-24 04:07:00,
2013-09-24 00:08:00,44.1,38.6,30.15,NW,310,1.0,16.0,81,0.00,,,0.00,Wunderground v.1.15,2013-09-24 04:08:00,
2013-09-24 00:13:00,44.0,38.9,30.15,NNW,327,1.0,16.0,82,0.00,,,0.00,Wunderground v.1.15,2013-09-24 04:13:00,
2013-09-24 00:18:00,43.9,38.4,30.15,NW,317,1.0,16.0,81,0.00,,,0.00,Wunderground v.1.15,2013-09-24 04:18:00,
2013-09-24 00:24:00,43.8,38.7,30.15,NW,323,1.0,16.0,82,0.00,,,0.00,Wunderground v.1.15,2013-09-24 04:24:00,
2013-09-24 00:30:00,43.8,38.7,30.15,NNW,327,2.0,2.0,82,0.00,,,0.00,Wunderground v.1.15,2013-09-24 04:30:00,
2013-09-24 00:35:00,43.7,38.6,30.15,NNW,344,1.0,16.0,82,0.00,,,0.00,Wunderground v.1.15,2013-09-24 04:35:00,
2013-09-24 00:40:00,43.7,38.9,30.15,WNW,288,2.0,2.0,83,0.00,,,0.00,Wunderground v.1.15,2013-09-24 04:40:00,
2013-09-24 00:46:00,43.7,38.9,30.15,North,5,2.0,16.0,83,0.00,,,0.00,Wunderground v.1.15,2013-09-24 04:46:00,
2013-09-24 00:52:00,43.6,38.5,30.15,North,355,1.0,16.0,82,0.00,,,0.00,Wunderground v.1.15,2013-09-24 04:52:00,
2013-09-24 00:57:00,43.6,38.8,30.14,North,355,1.0,16.0,83,0.00,,,0.00,Wunderground v.1.15,2013-09-24 04:57:00,
2013-09-24 01:03:00,43.5,38.7,30.14,NNW,338,1.0,18.0,83,0.00,,,0.00,Wunderground v.1.15,2013-09-24 05:03:00,
2013-09-24 01:09:00,43.4,38.6,30.14,NW,315,1.0,18.0,83,0.00,,,0.00,Wunderground v.1.15,2013-09-24 05:09:00,
2013-09-24 01:15:00,43.3,38.5,30.14,NW,313,1.0,18.0,83,0.00,,,0.00,Wunderground v.1.15,2013-09-24 05:15:00,
2013-09-24 01:20:00,43.3,38.5,30.14,NW,311,1.0,18.0,83,0.00,,,0.00,Wunderground v.1.15,2013-09-24 05:20:00,
2013-09-24 01:26:00,43.3,38.5,30.14,NW,311,1.0,18.0,83,0.00,,,0.00,Wunderground v.1.15,2013-09-24 05:26:00,
2013-09-24 01:32:00,43.2,38.4,30.14,NW,311,1.0,18.0,83,0.00,,,0.00,Wunderground v.1.15,2013-09-24 05:32:00,
2013-09-24 01:38:00,43.1,38.6,30.13,NW,311,1.0,18.0,84,0.00,,,0.00,Wunderground v.1.15,2013-09-24 05:38:00,
2013-09-24 01:44:00,42.9,38.4,30.13,NW,305,1.0,18.0,84,0.00,,,0.00,Wunderground v.1.15,2013-09-24 05:44:00,
2013-09-24 01:49:00,42.8,38.3,30.13,NW,304,1.0,18.0,84,0.00,,,0.00,Wunderground v.1.15,2013-09-24 05:49:00,
2013-09-24 01:55:00,42.8,38.3,30.13,NW,304,1.0,18.0,84,0.00,,,0.00,Wunderground v.1.15,2013-09-24 05:55:00,
2013-09-24 02:00:00,42.7,38.2,30.13,WNW,303,1.0,1.0,84,0.00,,,0.00,Wunderground v.1.15,2013-09-24 06:00:00,
2013-09-24 02:06:00,42.5,38.0,30.13,WNW,303,0.0,18.0,84,0.00,,,0.00,Wunderground v.1.15,2013-09-24 06:06:00,
2013-09-24 02:12:00,42.4,37.9,30.13,WNW,302,0.0,18.0,84,0.00,,,0.00,Wunderground v.1.15,2013-09-24 06:12:00,
2013-09-24 02:17:00,42.4,38.2,30.13,NW,304,1.0,18.0,85,0.00,,,0.00,Wunderground v.1.15,2013-09-24 06:17:00,
2013-09-24 02:22:00,42.3,38.1,30.12,WNW,298,2.0,18.0,85,0.00,,,0.00,Wunderground v.1.15,2013-09-24 06:22:00,
2013-09-24 02:28:00,42.3,38.1,30.12,WNW,296,4.0,18.0,85,0.00,,,0.00,Wunderground v.1.15,2013-09-24 06:28:00,
2013-09-24 02:34:00,42.2,38.3,30.12,WNW,295,4.0,18.0,86,0.00,,,0.00,Wunderground v.1.15,2013-09-24 06:34:00,
2013-09-24 02:40:00,42.1,37.9,30.11,WNW,296,4.0,4.0,85,0.00,,,0.00,Wunderground v.1.15,2013-09-24 06:40:00,
2013-09-24 02:45:00,42.0,38.1,30.11,WNW,296,4.0,18.0,86,0.00,,,0.00,Wunderground v.1.15,2013-09-24 06:45:00,
2013-09-24 02:51:00,41.9,38.0,30.11,WNW,296,3.0,18.0,86,0.00,,,0.00,Wunderground v.1.15,2013-09-24 06:51:00,
2013-09-24 02:57:00,41.9,38.0,30.11,WNW,296,2.0,18.0,86,0.00,,,0.00,Wunderground v.1.15,2013-09-24 06:57:00,
2013-09-24 03:02:00,41.9,38.0,30.11,WNW,296,2.0,18.0,86,0.00,,,0.00,Wunderground v.1.15,2013-09-24 07:02:00,
2013-09-24 03:08:00,42.0,38.1,30.11,WNW,296,1.0,18.0,86,0.00,,,0.00,Wunderground v.1.15,2013-09-24 07:08:00,
2013-09-24 03:14:00,42.1,37.9,30.11,WNW,295,1.0,18.0,85,0.00,,,0.00,Wunderground v.1.15,2013-09-24 07:14:00,
2013-09-24 03:20:00,42.3,38.1,30.11,WNW,296,1.0,1.0,85,0.00,,,0.00,Wunderground v.1.15,2013-09-24 07:20:00,
2013-09-24 03:25:00,42.3,38.1,30.11,WNW,296,1.0,18.0,85,0.00,,,0.00,Wunderground v.1.15,2013-09-24 07:25:00,
2013-09-24 03:31:00,42.0,37.8,30.11,WNW,296,0.0,18.0,85,0.00,,,0.00,Wunderground v.1.15,2013-09-24 07:31:00,
2013-09-24 03:37:00,42.1,38.2,30.11,WNW,296,1.0,18.0,86,0.00,,,0.00,Wunderground v.1.15,2013-09-24 07:37:00,
2013-09-24 03:43:00,42.0,37.8,30.12,WNW,295,1.0,18.0,85,0.00,,,0.00,Wunderground v.1.15,2013-09-24 07:43:00,
2013-09-24 03:48:00,42.1,38.2,30.11,WNW,296,1.0,18.0,86,0.00,,,0.00,Wunderground v.1.15,2013-09-24 07:48:00,
2013-09-24 03:54:00,42.3,38.4,30.11,WNW,296,1.0,18.0,86,0.00,,,0.00,Wunderground v.1.15,2013-09-24 07:54:00,
2013-09-24 04:00:00,42.4,38.2,30.11,WNW,296,0.0,18.0,85,0.00,,,0.00,Wunderground v.1.15,2013-09-24 08:00:00,
2013-09-24 04:06:00,42.4,38.2,30.11,WNW,296,0.0,18.0,85,0.00,,,0.00,Wunderground v.1.15,2013-09-24 08:06:00,
2013-09-24 04:12:00,42.3,38.4,30.12,WNW,295,0.0,18.0,86,0.00,,,0.00,Wunderground v.1.15,2013-09-24 08:12:00,
2013-09-24 04:18:00,42.3,38.4,30.11,WNW,295,0.0,18.0,86,0.00,,,0.00,Wunderground v.1.15,2013-09-24 08:18:00,
2013-09-24 04:24:00,42.4,38.5,30.11,WNW,296,1.0,18.0,86,0.00,,,0.00,Wunderground v.1.15,2013-09-24 08:24:00,
2013-09-24 04:29:00,42.5,38.6,30.11,NW,306,1.0,18.0,86,0.00,,,0.00,Wunderground v.1.15,2013-09-24 08:29:00,
2013-09-24 04:35:00,42.4,38.2,30.11,NW,306,0.0,18.0,85,0.00,,,0.00,Wunderground v.1.15,2013-09-24 08:35:00,
2013-09-24 04:41:00,42.5,38.6,30.12,NW,311,1.0,18.0,86,0.00,,,0.00,Wunderground v.1.15,2013-09-24 08:41:00,
2013-09-24 04:47:00,42.5,38.6,30.12,NW,312,1.0,18.0,86,0.00,,,0.00,Wunderground v.1.15,2013-09-24 08:47:00,
2013-09-24 04:52:00,42.6,38.4,30.11,NW,312,1.0,18.0,85,0.00,,,0.00,Wunderground v.1.15,2013-09-24 08:52:00,
2013-09-24 04:57:00,42.6,38.7,30.12,NW,313,1.0,18.0,86,0.00,,,0.00,Wunderground v.1.15,2013-09-24 08:57:00,
2013-09-24 05:03:00,42.7,38.5,30.12,NW,313,1.0,18.0,85,0.00,,,0.00,Wunderground v.1.15,2013-09-24 09:03:00,
2013-09-24 05:09:00,42.7,38.8,30.12,NW,314,0.0,18.0,86,0.00,,,0.00,Wunderground v.1.15,2013-09-24 09:09:00,
2013-09-24 05:14:00,42.6,38.4,30.12,NW,315,0.0,18.0,85,0.00,,,0.00,Wunderground v.1.15,2013-09-24 09:14:00,
2013-09-24 05:20:00,42.6,38.7,30.12,NW,315,0.0,18.0,86,0.00,,,0.00,Wunderground v.1.15,2013-09-24 09:20:00,
2013-09-24 05:26:00,42.5,38.6,30.12,NW,315,0.0,18.0,86,0.00,,,0.00,Wunderground v.1.15,2013-09-24 09:26:00,
2013-09-24 05:32:00,42.5,38.6,30.12,NW,315,0.0,18.0,86,0.00,,,0.00,Wunderground v.1.15,2013-09-24 09:32:00,
2013-09-24 05:37:00,42.4,38.5,30.12,NW,315,0.0,18.0,86,0.00,,,0.00,Wunderground v.1.15,2013-09-24 09:37:00,
2013-09-24 05:43:00,42.2,38.3,30.11,NW,315,0.0,18.0,86,0.00,,,0.00,Wunderground v.1.15,2013-09-24 09:43:00,
2013-09-24 05:49:00,42.0,38.1,30.12,NW,315,0.0,18.0,86,0.00,,,0.00,Wunderground v.1.15,2013-09-24 09:49:00,
2013-09-24 05:55:00,42.0,38.4,30.12,NW,315,0.0,18.0,87,0.00,,,0.00,Wunderground v.1.15,2013-09-24 09:55:00,
2013-09-24 06:00:00,42.0,38.1,30.12,NW,315,0.0,18.0,86,0.00,,,0.00,Wunderground v.1.15,2013-09-24 10:00:00,
2013-09-24 06:06:00,42.0,38.1,30.12,NW,315,0.0,18.0,86,0.00,,,0.00,Wunderground v.1.15,2013-09-24 10:06:00,
2013-09-24 06:12:00,41.8,38.2,30.12,NW,315,0.0,18.0,87,0.00,,,0.00,Wunderground v.1.15,2013-09-24 10:12:00,
2013-09-24 06:18:00,42.0,38.4,30.12,NW,315,0.0,18.0,87,0.00,,,0.00,Wunderground v.1.15,2013-09-24 10:18:00,
2013-09-24 06:24:00,42.2,38.6,30.12,NW,315,0.0,18.0,87,0.00,,,0.00,Wunderground v.1.15,2013-09-24 10:24:00,
2013-09-24 06:29:00,42.3,38.4,30.11,NW,315,0.0,18.0,86,0.00,,,0.00,Wunderground v.1.15,2013-09-24 10:29:00,
2013-09-24 06:35:00,42.5,38.6,30.12,NW,313,1.0,18.0,86,0.00,,,0.00,Wunderground v.1.15,2013-09-24 10:35:00,
2013-09-24 06:41:00,42.7,38.5,30.11,NW,313,0.0,18.0,85,0.00,,,0.00,Wunderground v.1.15,2013-09-24 10:41:00,
2013-09-24 06:47:00,42.7,38.5,30.11,NW,313,0.0,18.0,85,0.00,,,0.00,Wunderground v.1.15,2013-09-24 10:47:00,
2013-09-24 06:52:00,42.7,38.5,30.11,NW,313,0.0,18.0,85,0.00,,,0.00,Wunderground v.1.15,2013-09-24 10:52:00,
2013-09-24 06:58:00,42.7,38.5,30.11,NW,313,0.0,18.0,85,0.00,,,0.00,Wunderground v.1.15,2013-09-24 10:58:00,
2013-09-24 07:04:00,42.5,38.3,30.11,NW,313,0.0,18.0,85,0.00,,,0.00,Wunderground v.1.15,2013-09-24 11:04:00,
2013-09-24 07:10:00,42.2,38.0,30.12,NW,313,0.0,18.0,85,0.00,,,0.00,Wunderground v.1.15,2013-09-24 11:10:00,
2013-09-24 07:16:00,42.3,38.4,30.11,NW,313,0.0,18.0,86,0.00,,,0.00,Wunderground v.1.15,2013-09-24 11:16:00,
2013-09-24 07:22:00,42.4,38.5,30.11,NW,313,0.0,18.0,86,0.00,,,0.00,Wunderground v.1.15,2013-09-24 11:22:00,
2013-09-24 07:28:00,42.7,38.8,30.11,NW,311,1.0,18.0,86,0.00,,,0.00,Wunderground v.1.15,2013-09-24 11:28:00,
2013-09-24 07:33:00,43.1,38.9,30.11,WNW,297,3.0,18.0,85,0.00,,,0.00,Wunderground v.1.15,2013-09-24 11:33:00,
2013-09-24 07:39:00,43.4,39.2,30.11,WNW,294,4.0,18.0,85,0.00,,,0.00,Wunderground v.1.15,2013-09-24 11:39:00,
2013-09-24 07:45:00,43.7,39.2,30.11,WNW,302,4.0,18.0,84,0.00,,,0.00,Wunderground v.1.15,2013-09-24 11:45:00,
2013-09-24 07:51:00,43.8,39.3,30.11,NW,315,3.0,18.0,84,0.00,,,0.00,Wunderground v.1.15,2013-09-24 11:51:00,
2013-09-24 07:56:00,44.2,39.7,30.11,NW,316,3.0,18.0,84,0.00,,,0.00,Wunderground v.1.15,2013-09-24 11:56:00,
2013-09-24 08:03:00,44.5,39.7,30.11,WNW,297,2.0,18.0,83,0.00,,,0.00,Wunderground v.1.15,2013-09-24 12:03:00,
2013-09-24 08:09:00,44.8,40.0,30.11,NW,320,2.0,18.0,83,0.00,,,0.00,Wunderground v.1.15,2013-09-24 12:09:00,
2013-09-24 08:15:00,45.3,40.7,30.11,NNW,337,2.0,18.0,84,0.00,,,0.00,Wunderground v.1.15,2013-09-24 12:15:00,
2013-09-24 08:20:00,45.6,40.4,30.10,NNW,338,3.0,18.0,82,0.00,,,0.00,Wunderground v.1.15,2013-09-24 12:20:00,
2013-09-24 08:26:00,45.9,40.7,30.10,NW,304,5.0,18.0,82,0.00,,,0.00,Wunderground v.1.15,2013-09-24 12:26:00,
2013-09-24 08:32:00,46.3,40.8,30.10,NE,47,5.0,18.0,81,0.00,,,0.00,Wunderground v.1.15,2013-09-24 12:32:00,
2013-09-24 08:38:00,46.5,40.7,30.10,NNW,335,6.0,18.0,80,0.00,,,0.00,Wunderground v.1.15,2013-09-24 12:38:00,
2013-09-24 08:43:00,46.7,41.2,30.09,WNW,300,6.0,18.0,81,0.00,,,0.00,Wunderground v.1.15,2013-09-24 12:43:00,
2013-09-24 08:49:00,46.9,41.1,30.09,North,5,4.0,18.0,80,0.00,,,0.00,Wunderground v.1.15,2013-09-24 12:49:00,
2013-09-24 08:55:00,47.3,41.4,30.09,WNW,293,5.0,18.0,80,0.00,,,0.00,Wunderground v.1.15,2013-09-24 12:55:00,
2013-09-24 09:01:00,47.7,41.5,30.08,NNE,30,5.0,18.0,79,0.00,,,0.00,Wunderground v.1.15,2013-09-24 13:01:00,
2013-09-24 09:07:00,47.9,41.0,30.08,North,355,6.0,18.0,77,0.00,,,0.00,Wunderground v.1.15,2013-09-24 13:07:00,
2013-09-24 09:13:00,48.0,41.1,30.08,WNW,292,8.0,18.0,77,0.00,,,0.00,Wunderground v.1.15,2013-09-24 13:13:00,
2013-09-24 09:19:00,48.3,41.4,30.08,NW,321,7.0,18.0,77,0.00,,,0.00,Wunderground v.1.15,2013-09-24 13:19:00,
2013-09-24 09:24:00,48.5,41.6,30.08,West,279,6.0,18.0,77,0.00,,,0.00,Wunderground v.1.15,2013-09-24 13:24:00,
2013-09-24 09:30:00,48.9,41.3,30.08,NW,326,7.0,7.0,75,0.00,,,0.00,Wunderground v.1.15,2013-09-24 13:30:00,
2013-09-24 09:36:00,49.2,41.6,30.08,NNW,348,7.0,18.0,75,0.00,,,0.00,Wunderground v.1.15,2013-09-24 13:36:00,
2013-09-24 09:42:00,49.6,41.7,30.08,North,360,7.0,18.0,74,0.00,,,0.00,Wunderground v.1.15,2013-09-24 13:42:00,
2013-09-24 09:47:00,49.9,41.6,30.07,WNW,300,8.0,18.0,73,0.00,,,0.00,Wunderground v.1.15,2013-09-24 13:47:00,
2013-09-24 09:53:00,50.3,42.3,30.07,NNW,335,7.0,18.0,74,0.00,,,0.00,Wunderground v.1.15,2013-09-24 13:53:00,
2013-09-24 09:59:00,50.9,41.8,30.06,West,273,6.0,18.0,71,0.00,,,0.00,Wunderground v.1.15,2013-09-24 13:59:00,
2013-09-24 10:05:00,51.2,42.1,30.06,NW,323,8.0,18.0,71,0.00,,,0.00,Wunderground v.1.15,2013-09-24 14:05:00,
2013-09-24 10:11:00,51.2,41.7,30.07,NNW,328,9.0,9.0,70,0.00,,,0.00,Wunderground v.1.15,2013-09-24 14:11:00,
2013-09-24 10:17:00,51.8,41.9,30.07,North,9,8.0,18.0,69,0.00,,,0.00,Wunderground v.1.15,2013-09-24 14:17:00,
2013-09-24 10:23:00,52.3,42.0,30.07,NE,40,7.0,18.0,68,0.00,,,0.00,Wunderground v.1.15,2013-09-24 14:23:00,
2013-09-24 10:28:00,52.4,42.1,30.06,WNW,296,7.0,18.0,68,0.00,,,0.00,Wunderground v.1.15,2013-09-24 14:28:00,
2013-09-24 10:34:00,53.2,42.5,30.07,NNW,332,6.0,18.0,67,0.00,,,0.00,Wunderground v.1.15,2013-09-24 14:34:00,
2013-09-24 10:40:00,53.7,42.6,30.06,North,5,6.0,18.0,66,0.00,,,0.00,Wunderground v.1.15,2013-09-24 14:40:00,
2013-09-24 10:46:00,53.7,42.2,30.06,North,5,6.0,18.0,65,0.00,,,0.00,Wunderground v.1.15,2013-09-24 14:46:00,
2013-09-24 10:51:00,54.1,42.6,30.06,NNW,346,7.0,18.0,65,0.00,,,0.00,Wunderground v.1.15,2013-09-24 14:51:00,
2013-09-24 10:57:00,54.6,41.8,30.07,North,5,7.0,18.0,62,0.00,,,0.00,Wunderground v.1.15,2013-09-24 14:57:00,
2013-09-24 11:03:00,54.9,42.1,30.07,NW,319,7.0,18.0,62,0.00,,,0.00,Wunderground v.1.15,2013-09-24 15:03:00,
2013-09-24 11:09:00,55.7,42.9,30.06,NNE,18,7.0,18.0,62,0.00,,,0.00,Wunderground v.1.15,2013-09-24 15:09:00,
2013-09-24 11:15:00,55.7,42.5,30.06,NE,41,8.0,18.0,61,0.00,,,0.00,Wunderground v.1.15,2013-09-24 15:15:00,
2013-09-24 11:21:00,55.8,43.4,30.06,NNW,332,7.0,18.0,63,0.00,,,0.00,Wunderground v.1.15,2013-09-24 15:21:00,
2013-09-24 11:27:00,56.3,42.6,30.06,NNE,23,7.0,18.0,60,0.00,,,0.00,Wunderground v.1.15,2013-09-24 15:27:00,
2013-09-24 11:32:00,56.4,42.2,30.07,North,5,8.0,18.0,59,0.00,,,0.00,Wunderground v.1.15,2013-09-24 15:32:00,
2013-09-24 11:38:00,56.4,42.2,30.06,NNW,334,8.0,18.0,59,0.00,,,0.00,Wunderground v.1.15,2013-09-24 15:38:00,
2013-09-24 11:44:00,56.9,43.2,30.06,North,5,6.0,18.0,60,0.00,,,0.00,Wunderground v.1.15,2013-09-24 15:44:00,
2013-09-24 11:50:00,57.4,42.7,30.06,North,5,6.0,18.0,58,0.00,,,0.00,Wunderground v.1.15,2013-09-24 15:50:00,
2013-09-24 11:55:00,57.0,42.8,30.05,NW,317,9.0,18.0,59,0.00,,,0.00,Wunderground v.1.15,2013-09-24 15:55:00,
2013-09-24 12:01:00,57.3,42.6,30.05,WNW,286,8.0,18.0,58,0.00,,,0.00,Wunderground v.1.15,2013-09-24 16:01:00,
2013-09-24 12:07:00,57.3,42.6,30.05,NE,44,9.0,18.0,58,0.00,,,0.00,Wunderground v.1.15,2013-09-24 16:07:00,
2013-09-24 12:13:00,56.9,42.3,30.05,NE,43,11.0,18.0,58,0.00,,,0.00,Wunderground v.1.15,2013-09-24 16:13:00,
2013-09-24 12:19:00,57.2,42.1,30.05,North,5,10.0,18.0,57,0.00,,,0.00,Wunderground v.1.15,2013-09-24 16:19:00,
2013-09-24 12:25:00,57.6,42.9,30.04,North,355,10.0,18.0,58,0.00,,,0.00,Wunderground v.1.15,2013-09-24 16:25:00,
2013-09-24 12:31:00,58.2,43.0,30.04,WNW,283,8.0,10.0,57,0.00,,,0.00,Wunderground v.1.15,2013-09-24 16:31:00,
2013-09-24 12:36:00,58.7,42.6,30.04,NNW,333,8.0,18.0,55,0.00,,,0.00,Wunderground v.1.15,2013-09-24 16:36:00,
2013-09-24 12:42:00,58.8,42.7,30.04,WNW,296,8.0,18.0,55,0.00,,,0.00,Wunderground v.1.15,2013-09-24 16:42:00,
2013-09-24 12:48:00,59.0,41.9,30.04,NNW,340,8.0,20.0,53,0.00,,,0.00,Wunderground v.1.15,2013-09-24 16:48:00,
2013-09-24 12:54:00,59.1,41.5,30.04,NNE,13,10.0,18.0,52,0.00,,,0.00,Wunderground v.1.15,2013-09-24 16:54:00,
2013-09-24 12:59:00,59.1,42.5,30.04,North,355,9.0,18.0,54,0.00,,,0.00,Wunderground v.1.15,2013-09-24 16:59:00,
2013-09-24 13:05:00,59.5,42.3,30.04,NW,322,8.0,18.0,53,0.00,,,0.00,Wunderground v.1.15,2013-09-24 17:05:00,
2013-09-24 13:11:00,59.8,42.1,30.03,North,355,8.0,18.0,52,0.00,,,0.00,Wunderground v.1.15,2013-09-24 17:11:00,
2013-09-24 13:17:00,60.1,42.9,30.03,NW,306,8.0,18.0,53,0.00,,,0.00,Wunderground v.1.15,2013-09-24 17:17:00,
2013-09-24 13:23:00,60.5,42.8,30.02,North,5,7.0,18.0,52,0.00,,,0.00,Wunderground v.1.15,2013-09-24 17:23:00,
2013-09-24 13:29:00,60.6,42.4,30.02,NNE,19,8.0,18.0,51,0.00,,,0.00,Wunderground v.1.15,2013-09-24 17:29:00,
2013-09-24 13:35:00,59.9,42.2,30.02,NNE,12,10.0,18.0,52,0.00,,,0.00,Wunderground v.1.15,2013-09-24 17:35:00,
2013-09-24 13:40:00,60.1,41.4,30.02,West,275,11.0,11.0,50,0.00,,,0.00,Wunderground v.1.15,2013-09-24 17:40:00,
2013-09-24 13:46:00,60.1,40.9,30.02,NNE,12,9.0,18.0,49,0.00,,,0.00,Wunderground v.1.15,2013-09-24 17:46:00,
2013-09-24 13:52:00,60.3,41.0,30.02,NNE,21,10.0,18.0,49,0.00,,,0.00,Wunderground v.1.15,2013-09-24 17:52:00,
2013-09-24 13:58:00,60.8,42.0,30.02,NNW,347,9.0,18.0,50,0.00,,,0.00,Wunderground v.1.15,2013-09-24 17:58:00,
2013-09-24 14:03:00,61.0,42.2,30.02,NNW,337,7.0,18.0,50,0.00,,,0.00,Wunderground v.1.15,2013-09-24 18:03:00,
2013-09-24 14:09:00,61.2,41.3,30.01,North,351,7.0,18.0,48,0.00,,,0.00,Wunderground v.1.15,2013-09-24 18:09:00,
2013-09-24 14:15:00,61.5,41.6,30.01,NW,315,8.0,18.0,48,0.00,,,0.00,Wunderground v.1.15,2013-09-24 18:15:00,
2013-09-24 14:21:00,61.5,41.6,30.01,NW,311,8.0,18.0,48,0.00,,,0.00,Wunderground v.1.15,2013-09-24 18:21:00,
2013-09-24 14:27:00,62.1,42.2,30.01,NNW,336,9.0,18.0,48,0.00,,,0.00,Wunderground v.1.15,2013-09-24 18:27:00,
2013-09-24 14:33:00,62.3,41.8,30.01,North,5,8.0,18.0,47,0.00,,,0.00,Wunderground v.1.15,2013-09-24 18:33:00,
2013-09-24 14:39:00,62.2,41.2,30.00,NW,320,8.0,18.0,46,0.00,,,0.00,Wunderground v.1.15,2013-09-24 18:39:00,
2013-09-24 14:44:00,62.5,41.4,30.01,NNE,22,8.0,18.0,46,0.00,,,0.00,Wunderground v.1.15,2013-09-24 18:44:00,
2013-09-24 14:50:00,62.1,41.1,30.00,NW,322,9.0,9.0,46,0.00,,,0.00,Wunderground v.1.15,2013-09-24 18:50:00,
2013-09-24 14:56:00,62.0,41.5,30.00,WNW,292,9.0,18.0,47,0.00,,,0.00,Wunderground v.1.15,2013-09-24 18:56:00,
2013-09-24 15:02:00,62.3,40.7,30.00,NNE,24,8.0,20.0,45,0.00,,,0.00,Wunderground v.1.15,2013-09-24 19:02:00,
2013-09-24 15:07:00,61.8,41.3,30.00,NNW,328,9.0,20.0,47,0.00,,,0.00,Wunderground v.1.15,2013-09-24 19:07:00,
2013-09-24 15:13:00,62.3,41.2,30.00,North,11,8.0,18.0,46,0.00,,,0.00,Wunderground v.1.15,2013-09-24 19:13:00,
2013-09-24 15:19:00,62.5,41.4,30.00,North,350,8.0,18.0,46,0.00,,,0.00,Wunderground v.1.15,2013-09-24 19:19:00,
2013-09-24 15:26:00,62.9,41.2,29.99,North,360,8.0,18.0,45,0.00,,,0.00,Wunderground v.1.15,2013-09-24 19:26:00,
2013-09-24 15:32:00,62.8,41.1,29.99,NNW,329,7.0,18.0,45,0.00,,,0.00,Wunderground v.1.15,2013-09-24 19:32:00,
2013-09-24 15:37:00,62.6,40.9,29.99,North,9,8.0,18.0,45,0.00,,,0.00,Wunderground v.1.15,2013-09-24 19:37:00,
2013-09-24 15:43:00,62.3,41.8,29.99,WNW,291,9.0,18.0,47,0.00,,,0.00,Wunderground v.1.15,2013-09-24 19:43:00,
2013-09-24 15:48:00,62.8,41.1,29.99,North,355,9.0,18.0,45,0.00,,,0.00,Wunderground v.1.15,2013-09-24 19:48:00,
2013-09-24 15:54:00,63.2,42.1,29.99,WNW,303,8.0,18.0,46,0.00,,,0.00,Wunderground v.1.15,2013-09-24 19:54:00,
2013-09-24 16:00:00,63.6,42.4,29.99,NW,309,7.0,7.0,46,0.00,,,0.00,Wunderground v.1.15,2013-09-24 20:00:00,
2013-09-24 16:06:00,63.6,42.4,29.99,NNE,17,7.0,18.0,46,0.00,,,0.00,Wunderground v.1.15,2013-09-24 20:06:00,
2013-09-24 16:11:00,63.3,42.7,29.98,NNW,335,8.0,8.0,47,0.00,,,0.00,Wunderground v.1.15,2013-09-24 20:11:00,
2013-09-24 16:17:00,63.8,43.2,29.98,WNW,294,6.0,18.0,47,0.00,,,0.00,Wunderground v.1.15,2013-09-24 20:17:00,
2013-09-24 16:23:00,63.6,43.0,29.98,NNW,327,8.0,18.0,47,0.00,,,0.00,Wunderground v.1.15,2013-09-24 20:23:00,
2013-09-24 16:29:00,63.4,42.8,29.99,WNW,292,8.0,18.0,47,0.00,,,0.00,Wunderground v.1.15,2013-09-24 20:29:00,
2013-09-24 16:34:00,63.0,43.5,29.98,West,281,8.0,18.0,49,0.00,,,0.00,Wunderground v.1.15,2013-09-24 20:34:00,
2013-09-24 16:40:00,63.1,43.1,29.98,NNW,339,8.0,8.0,48,0.00,,,0.00,Wunderground v.1.15,2013-09-24 20:40:00,
2013-09-24 16:46:00,63.0,43.5,29.98,NNW,343,7.0,18.0,49,0.00,,,0.00,Wunderground v.1.15,2013-09-24 20:46:00,
2013-09-24 16:51:00,62.8,43.3,29.98,NNW,340,8.0,18.0,49,0.00,,,0.00,Wunderground v.1.15,2013-09-24 20:51:00,
2013-09-24 16:57:00,63.0,44.1,29.98,North,355,8.0,18.0,50,0.00,,,0.00,Wunderground v.1.15,2013-09-24 20:57:00,
2013-09-24 17:03:00,62.8,43.9,29.98,North,355,7.0,18.0,50,0.00,,,0.00,Wunderground v.1.15,2013-09-24 21:03:00,
2013-09-24 17:09:00,62.7,43.8,29.98,NW,311,7.0,18.0,50,0.00,,,0.00,Wunderground v.1.15,2013-09-24 21:09:00,
2013-09-24 17:14:00,62.9,44.0,29.98,NNE,18,7.0,18.0,50,0.00,,,0.00,Wunderground v.1.15,2013-09-24 21:14:00,
2013-09-24 17:20:00,63.0,44.6,29.98,North,355,7.0,7.0,51,0.00,,,0.00,Wunderground v.1.15,2013-09-24 21:20:00,
2013-09-24 17:26:00,62.7,44.8,29.98,NNW,336,7.0,18.0,52,0.00,,,0.00,Wunderground v.1.15,2013-09-24 21:26:00,
2013-09-24 17:32:00,62.3,44.4,29.98,North,11,8.0,18.0,52,0.00,,,0.00,Wunderground v.1.15,2013-09-24 21:32:00,
2013-09-24 17:37:00,62.2,44.3,29.98,NW,317,9.0,18.0,52,0.00,,,0.00,Wunderground v.1.15,2013-09-24 21:37:00,
2013-09-24 17:43:00,62.2,44.3,29.97,NNW,343,6.0,18.0,52,0.00,,,0.00,Wunderground v.1.15,2013-09-24 21:43:00,
2013-09-24 17:49:00,62.0,44.7,29.97,West,262,7.0,18.0,53,0.00,,,0.00,Wunderground v.1.15,2013-09-24 21:49:00,
2013-09-24 17:55:00,62.0,44.7,29.97,WNW,294,7.0,18.0,53,0.00,,,0.00,Wunderground v.1.15,2013-09-24 21:55:00,
2013-09-24 18:01:00,61.7,44.9,29.97,WNW,302,7.0,18.0,54,0.00,,,0.00,Wunderground v.1.15,2013-09-24 22:01:00,
2013-09-24 18:07:00,61.5,45.2,29.97,North,349,7.0,18.0,55,0.00,,,0.00,Wunderground v.1.15,2013-09-24 22:07:00,
2013-09-24 18:13:00,61.2,44.9,29.97,West,281,6.0,18.0,55,0.00,,,0.00,Wunderground v.1.15,2013-09-24 22:13:00,
2013-09-24 18:18:00,60.9,45.1,29.97,NW,309,6.0,18.0,56,0.00,,,0.00,Wunderground v.1.15,2013-09-24 22:18:00,
2013-09-24 18:24:00,60.6,44.8,29.97,NW,318,5.0,18.0,56,0.00,,,0.00,Wunderground v.1.15,2013-09-24 22:24:00,
2013-09-24 18:30:00,60.2,44.9,29.97,NNW,347,5.0,5.0,57,0.00,,,0.00,Wunderground v.1.15,2013-09-24 22:30:00,
2013-09-24 18:36:00,59.6,44.8,29.97,WNW,298,5.0,18.0,58,0.00,,,0.00,Wunderground v.1.15,2013-09-24 22:36:00,
2013-09-24 18:41:00,59.2,44.9,29.97,NW,305,5.0,18.0,59,0.00,,,0.00,Wunderground v.1.15,2013-09-24 22:41:00,
2013-09-24 18:47:00,58.7,44.4,29.97,NNW,339,5.0,18.0,59,0.00,,,0.00,Wunderground v.1.15,2013-09-24 22:47:00,
2013-09-24 18:53:00,58.3,44.5,29.96,WNW,296,5.0,18.0,60,0.00,,,0.00,Wunderground v.1.15,2013-09-24 22:53:00,
2013-09-24 18:59:00,58.0,44.2,29.97,WNW,300,3.0,18.0,60,0.00,,,0.00,Wunderground v.1.15,2013-09-24 22:59:00,
2013-09-24 19:05:00,57.8,44.0,29.97,NW,318,3.0,18.0,60,0.00,,,0.00,Wunderground v.1.15,2013-09-24 23:05:00,
2013-09-24 19:10:00,57.6,44.2,29.98,NW,318,2.0,2.0,61,0.00,,,0.00,Wunderground v.1.15,2013-09-24 23:10:00,
2013-09-24 19:16:00,57.3,44.8,29.98,NW,318,0.0,18.0,63,0.00,,,0.00,Wunderground v.1.15,2013-09-24 23:16:00,
2013-09-24 19:21:00,56.8,44.7,29.99,NW,315,0.0,18.0,64,0.00,,,0.00,Wunderground v.1.15,2013-09-24 23:21:00,
2013-09-24 19:27:00,56.5,44.5,29.99,NNW,346,2.0,18.0,64,0.00,,,0.00,Wunderground v.1.15,2013-09-24 23:27:00,
2013-09-24 19:33:00,56.6,44.6,30.00,NW,306,3.0,18.0,64,0.00,,,0.00,Wunderground v.1.15,2013-09-24 23:33:00,
2013-09-24 19:39:00,56.6,45.0,30.00,NW,317,4.0,18.0,65,0.00,,,0.00,Wunderground v.1.15,2013-09-24 23:39:00,
2013-09-24 19:44:00,56.4,44.8,30.00,North,355,4.0,18.0,65,0.00,,,0.00,Wunderground v.1.15,2013-09-24 23:44:00,
2013-09-24 19:50:00,56.0,44.8,30.00,NNW,340,4.0,4.0,66,0.00,,,0.00,Wunderground v.1.15,2013-09-24 23:50:00,
2013-09-24 19:56:00,55.8,44.6,30.00,NW,325,3.0,18.0,66,0.00,,,0.00,Wunderground v.1.15,2013-09-24 23:56:00,
2013-09-24 20:02:00,55.6,44.4,30.00,NW,314,3.0,18.0,66,0.00,,,0.00,Wunderground v.1.15,2013-09-25 00:02:00,
2013-09-24 20:07:00,55.4,44.6,30.01,North,355,3.0,18.0,67,0.00,,,0.00,Wunderground v.1.15,2013-09-25 00:07:00,
2013-09-24 20:13:00,55.3,44.9,30.01,WNW,295,4.0,18.0,68,0.00,,,0.00,Wunderground v.1.15,2013-09-25 00:13:00,
2013-09-24 20:19:00,55.1,44.7,30.01,West,271,4.0,18.0,68,0.00,,,0.00,Wunderground v.1.15,2013-09-25 00:19:00,
2013-09-24 20:25:00,54.9,44.9,30.02,NW,315,4.0,18.0,69,0.00,,,0.00,Wunderground v.1.15,2013-09-25 00:25:00,
2013-09-24 20:31:00,54.7,44.7,30.02,NW,313,4.0,18.0,69,0.00,,,0.00,Wunderground v.1.15,2013-09-25 00:31:00,
2013-09-24 20:37:00,54.4,44.8,30.02,WNW,282,3.0,18.0,70,0.00,,,0.00,Wunderground v.1.15,2013-09-25 00:37:00,
2013-09-24 20:43:00,54.1,44.5,30.02,NW,321,2.0,18.0,70,0.00,,,0.00,Wunderground v.1.15,2013-09-25 00:43:00,
2013-09-24 20:48:00,53.8,44.6,30.03,WNW,290,3.0,18.0,71,0.00,,,0.00,Wunderground v.1.15,2013-09-25 00:48:00,
2013-09-24 20:54:00,53.6,44.8,30.03,NNW,341,3.0,18.0,72,0.00,,,0.00,Wunderground v.1.15,2013-09-25 00:54:00,
2013-09-24 21:00:00,53.3,44.5,30.03,NW,313,3.0,3.0,72,0.00,,,0.00,Wunderground v.1.15,2013-09-25 01:00:00,
2013-09-24 21:06:00,53.0,44.6,30.03,NNE,17,3.0,18.0,73,0.00,,,0.00,Wunderground v.1.15,2013-09-25 01:06:00,
2013-09-24 21:11:00,52.7,45.3,30.03,WNW,296,3.0,5.0,76,0.00,,,0.00,Wunderground v.1.15,2013-09-25 01:11:00,
2013-09-24 21:17:00,52.4,44.4,30.03,NNW,332,3.0,18.0,74,0.00,,,0.00,Wunderground v.1.15,2013-09-25 01:17:00,
2013-09-24 21:23:00,52.2,44.5,30.03,NW,308,3.0,18.0,75,0.00,,,0.00,Wunderground v.1.15,2013-09-25 01:23:00,
2013-09-24 21:29:00,52.0,44.3,30.04,NW,321,2.0,18.0,75,0.00,,,0.00,Wunderground v.1.15,2013-09-25 01:29:00,
2013-09-24 21:35:00,51.7,44.4,30.04,WNW,293,2.0,18.0,76,0.00,,,0.00,Wunderground v.1.15,2013-09-25 01:35:00,
2013-09-24 21:41:00,51.6,44.3,30.04,NW,321,2.0,18.0,76,0.00,,,0.00,Wunderground v.1.15,2013-09-25 01:41:00,
2013-09-24 21:47:00,51.5,44.5,30.04,NW,317,3.0,18.0,77,0.00,,,0.00,Wunderground v.1.15,2013-09-25 01:47:00,
2013-09-24 21:52:00,51.3,44.3,30.04,NW,317,1.0,18.0,77,0.00,,,0.00,Wunderground v.1.15,2013-09-25 01:52:00,
2013-09-24 21:58:00,51.1,44.1,30.04,NW,315,0.0,18.0,77,0.00,,,0.00,Wunderground v.1.15,2013-09-25 01:58:00,
2013-09-24 22:03:00,51.0,44.4,30.04,NW,317,2.0,18.0,78,0.00,,,0.00,Wunderground v.1.15,2013-09-25 02:03:00,
2013-09-24 22:09:00,50.9,44.3,30.04,NW,305,1.0,18.0,78,0.00,,,0.00,Wunderground v.1.15,2013-09-25 02:09:00,
2013-09-24 22:15:00,50.6,44.3,30.05,WNW,299,0.0,18.0,79,0.00,,,0.00,Wunderground v.1.15,2013-09-25 02:15:00,
2013-09-24 22:21:00,50.4,44.1,30.05,WNW,284,1.0,18.0,79,0.00,,,0.00,Wunderground v.1.15,2013-09-25 02:21:00,
2013-09-24 22:26:00,50.3,44.0,30.04,WNW,284,0.0,18.0,79,0.00,,,0.00,Wunderground v.1.15,2013-09-25 02:26:00,
2013-09-24 22:32:00,50.2,44.3,30.05,WNW,284,1.0,18.0,80,0.00,,,0.00,Wunderground v.1.15,2013-09-25 02:32:00,
2013-09-24 22:38:00,50.0,44.1,30.05,WNW,284,1.0,18.0,80,0.00,,,0.00,Wunderground v.1.15,2013-09-25 02:38:00,
2013-09-24 22:44:00,49.9,44.0,30.05,WNW,284,0.0,18.0,80,0.00,,,0.00,Wunderground v.1.15,2013-09-25 02:44:00,
2013-09-24 22:49:00,49.9,44.0,30.05,WNW,284,1.0,18.0,80,0.00,,,0.00,Wunderground v.1.15,2013-09-25 02:49:00,
2013-09-24 22:55:00,49.9,44.0,30.05,WNW,285,2.0,18.0,80,0.00,,,0.00,Wunderground v.1.15,2013-09-25 02:55:00,
2013-09-24 23:00:00,49.9,44.0,30.05,WNW,285,1.0,1.0,80,0.00,,,0.00,Wunderground v.1.15,2013-09-25 03:00:00,
2013-09-24 23:05:00,49.8,44.2,30.05,WNW,290,1.0,18.0,81,0.00,,,0.00,Wunderground v.1.15,2013-09-25 03:05:00,
2013-09-24 23:10:00,49.7,43.8,30.05,WNW,290,1.0,1.0,80,0.00,,,0.00,Wunderground v.1.15,2013-09-25 03:10:00,
2013-09-24 23:16:00,49.7,43.8,30.05,WNW,290,1.0,18.0,80,0.00,,,0.00,Wunderground v.1.15,2013-09-25 03:16:00,
2013-09-24 23:21:00,49.6,43.7,30.04,WNW,290,1.0,18.0,80,0.00,,,0.00,Wunderground v.1.15,2013-09-25 03:21:00,
2013-09-24 23:27:00,49.5,43.9,30.05,WNW,290,0.0,18.0,81,0.00,,,0.00,Wunderground v.1.15,2013-09-25 03:27:00,
2013-09-24 23:33:00,49.4,43.8,30.05,WNW,290,1.0,18.0,81,0.00,,,0.00,Wunderground v.1.15,2013-09-25 03:33:00,
2013-09-24 23:38:00,49.2,43.6,30.05,WNW,290,1.0,18.0,81,0.00,,,0.00,Wunderground v.1.15,2013-09-25 03:38:00,
2013-09-24 23:44:00,49.0,43.4,30.04,WNW,290,0.0,18.0,81,0.00,,,0.00,Wunderground v.1.15,2013-09-25 03:44:00,
2013-09-24 23:50:00,48.9,43.6,30.04,WNW,290,0.0,18.0,82,0.00,,,0.00,Wunderground v.1.15,2013-09-25 03:50:00,
2013-09-24 23:55:00,48.8,43.5,30.04,WNW,290,0.0,18.0,82,0.00,,,0.00,Wunderground v.1.15,2013-09-25 03:55:00,